UAL403 KSAN-KLAS

Flight info

Callsign UAL403
Flight time 0h 37m
Altitude 29000
Route PADRZ2 CHKNN SEBBY YELAH MISEN RNDRZ3
Aircraft A20N/M-SDE2E3FGHIRWXY/LB1

Departure

Time 2026-05-08 04:47
Airport San Diego International Airport (KSAN)

Arrival

Time 2026-05-08 05:25
Airport Harry Reid International Airport (KLAS)
Time Latitude Longitude Altitude Speed Heading
2026-05-08 04:22 32.73321 -117.19609 28 ft 0 kts 199°
2026-05-08 04:32 32.73315 -117.19611 28 ft 0 kts 199°
2026-05-08 04:32 32.73333 -117.19604 28 ft 3 kts 199°
2026-05-08 04:32 32.73344 -117.19601 29 ft 2 kts 162°
2026-05-08 04:33 32.73351 -117.19604 29 ft 0 kts 130°
2026-05-08 04:35 32.73339 -117.19574 29 ft 14 kts 107°
2026-05-08 04:35 32.73349 -117.19372 28 ft 36 kts 103°
2026-05-08 04:35 32.73271 -117.19049 29 ft 39 kts 108°
2026-05-08 04:36 32.73211 -117.18802 31 ft 39 kts 105°
2026-05-08 04:36 32.73178 -117.18660 37 ft 40 kts 105°
2026-05-08 04:36 32.73130 -117.18457 34 ft 36 kts 107°
2026-05-08 04:36 32.73062 -117.18167 36 ft 38 kts 105°
2026-05-08 04:37 32.72986 -117.17868 31 ft 39 kts 106°
2026-05-08 04:37 32.72950 -117.17732 32 ft 10 kts 98°
2026-05-08 04:37 32.72952 -117.17704 31 ft 0 kts 77°
2026-05-08 04:46 32.72968 -117.17644 31 ft 14 kts 64°
2026-05-08 04:46 32.73032 -117.17633 32 ft 7 kts 299°
2026-05-08 04:46 32.73044 -117.17693 31 ft 18 kts 284°
2026-05-08 04:46 32.73179 -117.18238 34 ft 120 kts 286°
2026-05-08 04:47 32.73495 -117.19541 175 ft 194 kts 285°
2026-05-08 04:47 32.73895 -117.21192 954 ft 219 kts 285°
2026-05-08 04:47 32.74594 -117.22807 2405 ft 217 kts 306°
2026-05-08 04:47 32.75476 -117.24179 4014 ft 200 kts 308°
2026-05-08 04:48 32.76272 -117.25422 5531 ft 180 kts 307°
2026-05-08 04:48 32.76998 -117.26607 6691 ft 180 kts 306°
2026-05-08 04:48 32.77752 -117.27898 7381 ft 200 kts 305°
2026-05-08 04:48 32.78555 -117.29327 8221 ft 213 kts 305°
2026-05-08 04:49 32.79385 -117.30825 9153 ft 221 kts 307°
2026-05-08 04:49 32.80299 -117.32331 10111 ft 228 kts 310°
2026-05-08 04:49 32.81261 -117.33841 10934 ft 239 kts 310°
2026-05-08 04:49 32.82284 -117.35428 11829 ft 244 kts 310°
2026-05-08 04:50 32.83322 -117.37038 12793 ft 247 kts 310°
2026-05-08 04:50 32.84379 -117.38677 13700 ft 252 kts 310°
2026-05-08 04:50 32.85458 -117.40352 14525 ft 257 kts 310°
2026-05-08 04:50 32.86548 -117.42046 15421 ft 258 kts 309°
2026-05-08 04:51 32.87639 -117.43742 16363 ft 258 kts 309°
2026-05-08 04:51 32.88730 -117.45438 17300 ft 258 kts 309°
2026-05-08 04:51 32.89826 -117.47142 18224 ft 259 kts 309°
2026-05-08 04:51 32.90928 -117.48854 19017 ft 262 kts 309°
2026-05-08 04:52 32.92043 -117.50588 19746 ft 266 kts 309°
2026-05-08 04:52 32.93176 -117.52351 20488 ft 270 kts 309°
2026-05-08 04:52 32.94307 -117.54112 21235 ft 273 kts 310°
2026-05-08 04:52 32.95484 -117.55945 22004 ft 277 kts 310°
2026-05-08 04:53 32.96645 -117.57754 22747 ft 280 kts 310°
2026-05-08 04:53 32.97837 -117.59612 23493 ft 284 kts 310°
2026-05-08 04:53 32.99044 -117.61495 24117 ft 287 kts 310°
2026-05-08 04:53 33.00313 -117.63345 24712 ft 289 kts 317°
2026-05-08 04:54 33.01877 -117.64837 25288 ft 289 kts 332°
2026-05-08 04:54 33.03736 -117.65711 25865 ft 288 kts 351°
2026-05-08 04:54 33.05729 -117.65774 26422 ft 289 kts 11°
2026-05-08 04:54 33.07678 -117.65155 26992 ft 291 kts 20°
2026-05-08 04:55 33.09958 -117.64041 27675 ft 294 kts 25°
2026-05-08 04:55 33.13658 -117.61851 28782 ft 299 kts 27°
2026-05-08 04:55 33.16616 -117.60091 29068 ft 307 kts 26°
2026-05-08 04:55 33.20390 -117.57944 29061 ft 304 kts 25°
2026-05-08 04:56 33.28064 -117.53692 29066 ft 304 kts 25°
2026-05-08 04:56 33.35743 -117.49426 29071 ft 304 kts 25°
2026-05-08 04:57 33.43411 -117.45154 29066 ft 303 kts 25°
2026-05-08 04:57 33.51049 -117.40890 29060 ft 303 kts 25°
2026-05-08 04:58 33.58691 -117.36616 29041 ft 303 kts 25°
2026-05-08 04:58 33.66335 -117.32333 29009 ft 303 kts 25°
2026-05-08 04:59 33.73971 -117.28045 29010 ft 303 kts 25°
2026-05-08 04:59 33.81617 -117.23743 29032 ft 303 kts 25°
2026-05-08 05:00 33.89224 -117.19455 29033 ft 304 kts 25°
2026-05-08 05:00 33.96866 -117.15138 28994 ft 303 kts 25°
2026-05-08 05:01 34.04485 -117.10826 28984 ft 302 kts 25°
2026-05-08 05:01 34.12099 -117.06508 28986 ft 302 kts 25°
2026-05-08 05:02 34.19721 -117.02177 28977 ft 302 kts 25°
2026-05-08 05:02 34.27329 -116.97846 28963 ft 302 kts 25°
2026-05-08 05:03 34.34935 -116.93506 28967 ft 302 kts 25°
2026-05-08 05:03 34.42555 -116.89150 29004 ft 303 kts 25°
2026-05-08 05:04 34.50191 -116.84776 28997 ft 301 kts 25°
2026-05-08 05:04 34.57711 -116.80459 29001 ft 301 kts 25°
2026-05-08 05:05 34.65267 -116.76113 29018 ft 299 kts 25°
2026-05-08 05:05 34.69005 -116.73959 29025 ft 296 kts 25°
2026-05-08 05:05 34.72728 -116.71813 29040 ft 296 kts 25°
2026-05-08 05:06 34.76460 -116.69659 29042 ft 296 kts 25°
2026-05-08 05:06 34.80180 -116.67510 29044 ft 296 kts 25°
2026-05-08 05:06 34.83903 -116.65358 29039 ft 296 kts 25°
2026-05-08 05:06 34.87396 -116.62713 29034 ft 297 kts 36°
2026-05-08 05:07 34.90624 -116.59567 29020 ft 298 kts 38°
2026-05-08 05:07 34.93862 -116.56342 29023 ft 301 kts 38°
2026-05-08 05:07 35.00409 -116.49953 28965 ft 301 kts 37°
2026-05-08 05:08 35.06939 -116.43611 28927 ft 301 kts 37°
2026-05-08 05:08 35.12786 -116.36349 28916 ft 301 kts 45°
2026-05-08 05:09 35.15579 -116.32335 28938 ft 329 kts 53°
2026-05-08 05:09 35.18730 -116.27847 28951 ft 366 kts 51°
2026-05-08 05:09 35.22051 -116.22748 28930 ft 400 kts 45°
2026-05-08 05:09 35.25634 -116.17187 28926 ft 432 kts 49°
2026-05-08 05:10 35.29593 -116.11414 28749 ft 447 kts 52°
2026-05-08 05:10 35.37240 -115.99846 26778 ft 418 kts 49°
2026-05-08 05:10 35.40816 -115.94447 26122 ft 399 kts 49°
2026-05-08 05:11 35.44226 -115.89278 25531 ft 381 kts 49°
2026-05-08 05:11 35.47489 -115.84330 24818 ft 369 kts 49°
2026-05-08 05:11 35.50631 -115.79165 23171 ft 386 kts 53°
2026-05-08 05:11 35.53660 -115.73636 21356 ft 394 kts 54°
2026-05-08 05:12 35.56733 -115.67969 19420 ft 403 kts 54°
2026-05-08 05:12 35.59791 -115.62288 18386 ft 387 kts 54°
2026-05-08 05:12 35.62681 -115.56910 17412 ft 370 kts 54°
2026-05-08 05:12 35.65474 -115.51706 16323 ft 359 kts 54°
2026-05-08 05:13 35.68192 -115.46635 15206 ft 351 kts 54°
2026-05-08 05:13 35.70857 -115.41658 14088 ft 344 kts 55°
2026-05-08 05:13 35.73451 -115.36802 12884 ft 339 kts 55°
2026-05-08 05:13 35.76004 -115.32015 11697 ft 335 kts 55°
2026-05-08 05:14 35.78525 -115.27282 10612 ft 328 kts 55°
2026-05-08 05:14 35.81002 -115.22627 9573 ft 318 kts 54°
2026-05-08 05:14 35.83347 -115.18210 8848 ft 301 kts 54°
2026-05-08 05:14 35.85606 -115.13953 8047 ft 289 kts 55°
2026-05-08 05:15 35.87769 -115.09870 8027 ft 284 kts 54°
2026-05-08 05:15 35.89952 -115.05751 8028 ft 288 kts 55°
2026-05-08 05:15 35.92140 -115.01608 8038 ft 288 kts 54°
2026-05-08 05:15 35.94338 -114.97456 7989 ft 289 kts 55°
2026-05-08 05:16 35.96537 -114.93295 7988 ft 291 kts 55°
2026-05-08 05:16 35.98750 -114.89077 7990 ft 293 kts 55°
2026-05-08 05:16 36.00967 -114.84860 7987 ft 292 kts 55°
2026-05-08 05:16 36.03161 -114.80703 7976 ft 276 kts 55°
2026-05-08 05:17 36.05111 -114.76964 7959 ft 243 kts 55°
2026-05-08 05:17 36.06850 -114.73616 7947 ft 232 kts 55°
2026-05-08 05:17 36.08629 -114.70237 7932 ft 236 kts 50°
2026-05-08 05:17 36.11337 -114.68358 7914 ft 225 kts
2026-05-08 05:18 36.14386 -114.69028 7900 ft 224 kts 332°
2026-05-08 05:18 36.16110 -114.71982 7903 ft 221 kts 273°
2026-05-08 05:18 36.14862 -114.75384 7922 ft 227 kts 234°
2026-05-08 05:18 36.13049 -114.78609 7940 ft 228 kts 236°
2026-05-08 05:19 36.11199 -114.81795 7951 ft 227 kts 237°
2026-05-08 05:19 36.09366 -114.84980 7961 ft 227 kts 236°
2026-05-08 05:19 36.07531 -114.88173 7970 ft 228 kts 237°
2026-05-08 05:19 36.05736 -114.91295 7964 ft 213 kts 236°
2026-05-08 05:20 36.04109 -114.94120 7988 ft 194 kts 236°
2026-05-08 05:20 36.02547 -114.96838 7979 ft 195 kts 237°
2026-05-08 05:20 36.00752 -114.99327 8006 ft 199 kts 206°
2026-05-08 05:20 35.98990 -114.99128 7973 ft 203 kts 143°
2026-05-08 05:21 35.98585 -114.96049 7940 ft 198 kts 50°
2026-05-08 05:21 36.01000 -114.94499 7096 ft 199 kts 19°
2026-05-08 05:21 36.02342 -114.92001 6984 ft 192 kts 105°
2026-05-08 05:21 36.00658 -114.89479 6978 ft 196 kts 134°
2026-05-08 05:22 36.00312 -114.86253 6076 ft 210 kts 51°
2026-05-08 05:22 36.02700 -114.85752 5318 ft 182 kts 319°
2026-05-08 05:22 36.04246 -114.88212 4484 ft 188 kts 304°
2026-05-08 05:22 36.05645 -114.91047 3657 ft 188 kts 285°
2026-05-08 05:23 36.06252 -114.94115 3073 ft 178 kts 280°
2026-05-08 05:23 36.06714 -114.97069 2993 ft 177 kts 278°
2026-05-08 05:23 36.07095 -115.00114 2975 ft 179 kts 275°
2026-05-08 05:23 36.07311 -115.03141 2972 ft 172 kts 269°
2026-05-08 05:24 36.07323 -115.05781 2968 ft 145 kts 270°
2026-05-08 05:24 36.07352 -115.08266 2782 ft 144 kts 266°
2026-05-08 05:24 36.07360 -115.10750 2382 ft 144 kts 266°
2026-05-08 05:24 36.07366 -115.13004 2142 ft 114 kts 267°
2026-05-08 05:25 36.07359 -115.14342 2132 ft 46 kts 269°
2026-05-08 05:25 36.07426 -115.14935 2127 ft 8 kts 295°
2026-05-08 05:25 36.07482 -115.15095 2126 ft 11 kts 292°
2026-05-08 05:25 36.07484 -115.15101 2125 ft 0 kts 291°
2026-05-08 05:26 36.07495 -115.15114 2125 ft 6 kts 327°
2026-05-08 05:27 36.07592 -115.15169 2128 ft 6 kts 335°
2026-05-08 05:27 36.07751 -115.15261 2130 ft 7 kts 332°
2026-05-08 05:27 36.07809 -115.15215 2129 ft 8 kts 86°
2026-05-08 05:27 36.07779 -115.14739 2124 ft 35 kts 96°
2026-05-08 05:28 36.07752 -115.14147 2123 ft 34 kts 92°
2026-05-08 05:28 36.07753 -115.13597 2128 ft 31 kts 88°
2026-05-08 05:28 36.07810 -115.13368 2130 ft 12 kts 19°
2026-05-08 05:28 36.07913 -115.13179 2123 ft 16 kts 58°
2026-05-08 05:29 36.08073 -115.13152 2114 ft 1 kts 344°
2026-05-08 05:29 36.08074 -115.13152 2116 ft 1 kts 344°
2026-05-08 05:29 36.08100 -115.13169 2112 ft 7 kts 318°
2026-05-08 05:29 36.08119 -115.13216 2111 ft 0 kts 277°